CEB650 RPLL-RPVA

Flight info

Callsign CEB650
Flight time 0h 58m
Altitude 33000
Route IPATA2R IPATA B462 ARREX ARREX2R
Aircraft A21N/M-SDE3FGHIRWY/LB1

Departure

Time 2026-05-04 13:42
Airport Ninoy Aquino International Airport (RPLL)

Arrival

Time 2026-05-04 14:40
Airport Daniel Z. Romualdez Airport (RPVA)
Time Latitude Longitude Altitude Speed Heading
2026-05-04 12:58 14.52330 121.00788 82 ft 0 kts 45°
2026-05-04 13:24 14.52324 121.00782 81 ft 2 kts 47°
2026-05-04 13:25 14.52304 121.00760 81 ft 2 kts 46°
2026-05-04 13:25 14.52297 121.00752 81 ft 2 kts 43°
2026-05-04 13:25 14.52283 121.00746 82 ft 2 kts
2026-05-04 13:25 14.52269 121.00750 82 ft 2 kts 328°
2026-05-04 13:26 14.52263 121.00754 81 ft 0 kts 313°
2026-05-04 13:26 14.52277 121.00741 82 ft 5 kts 315°
2026-05-04 13:26 14.52292 121.00726 81 ft 0 kts 315°
2026-05-04 13:35 14.52295 121.00722 81 ft 1 kts 315°
2026-05-04 13:36 14.52315 121.00702 81 ft 6 kts 315°
2026-05-04 13:36 14.52356 121.00660 81 ft 10 kts 315°
2026-05-04 13:36 14.52414 121.00600 81 ft 12 kts 315°
2026-05-04 13:36 14.52470 121.00542 81 ft 10 kts 315°
2026-05-04 13:37 14.52486 121.00489 81 ft 8 kts 239°
2026-05-04 13:37 14.52456 121.00454 81 ft 2 kts 226°
2026-05-04 13:37 14.52455 121.00452 81 ft 0 kts 226°
2026-05-04 13:38 14.52452 121.00450 81 ft 2 kts 226°
2026-05-04 13:38 14.52428 121.00425 81 ft 7 kts 226°
2026-05-04 13:39 14.52375 121.00404 81 ft 8 kts 162°
2026-05-04 13:39 14.52349 121.00421 81 ft 0 kts 138°
2026-05-04 13:41 14.52339 121.00431 81 ft 15 kts 137°
2026-05-04 13:41 14.52053 121.00724 82 ft 97 kts 135°
2026-05-04 13:41 14.51408 121.01393 86 ft 161 kts 134°
2026-05-04 13:42 14.49762 121.03059 1258 ft 168 kts 133°
2026-05-04 13:42 14.48901 121.03876 1907 ft 167 kts 133°
2026-05-04 13:42 14.48051 121.04649 2292 ft 164 kts 134°
2026-05-04 13:42 14.47189 121.05434 2598 ft 164 kts 133°
2026-05-04 13:43 14.46335 121.06216 2912 ft 165 kts 133°
2026-05-04 13:43 14.45591 121.07091 3212 ft 164 kts 121°
2026-05-04 13:43 14.44943 121.08114 3408 ft 173 kts 118°
2026-05-04 13:43 14.44293 121.09203 3588 ft 184 kts 117°
2026-05-04 13:44 14.43617 121.10358 3797 ft 195 kts 117°
2026-05-04 13:44 14.42900 121.11592 4013 ft 206 kts 117°
2026-05-04 13:44 14.42149 121.12894 4223 ft 217 kts 117°
2026-05-04 13:44 14.41360 121.14271 4369 ft 231 kts 117°
2026-05-04 13:45 14.40520 121.15749 4558 ft 244 kts 117°
2026-05-04 13:45 14.39643 121.17298 4787 ft 256 kts 117°
2026-05-04 13:45 14.38725 121.18928 5047 ft 266 kts 117°
2026-05-04 13:45 14.37800 121.20581 5427 ft 269 kts 117°
2026-05-04 13:46 14.36802 121.22229 5877 ft 272 kts 125°
2026-05-04 13:46 14.35571 121.23717 6307 ft 274 kts 129°
2026-05-04 13:46 14.34275 121.25174 6734 ft 276 kts 129°
2026-05-04 13:46 14.32977 121.26640 7141 ft 278 kts 129°
2026-05-04 13:47 14.31688 121.28117 7524 ft 280 kts 128°
2026-05-04 13:47 14.30391 121.29626 7876 ft 282 kts 128°
2026-05-04 13:47 14.29089 121.31148 8275 ft 284 kts 128°
2026-05-04 13:47 14.27774 121.32696 8641 ft 286 kts 128°
2026-05-04 13:48 14.26471 121.34233 9006 ft 288 kts 128°
2026-05-04 13:48 14.25145 121.35799 9330 ft 290 kts 128°
2026-05-04 13:48 14.23815 121.37371 9667 ft 292 kts 128°
2026-05-04 13:48 14.22475 121.38955 10008 ft 293 kts 128°
2026-05-04 13:49 14.21128 121.40549 10236 ft 298 kts 128°
2026-05-04 13:49 14.19750 121.42181 10425 ft 305 kts 128°
2026-05-04 13:49 14.18339 121.43848 10550 ft 312 kts 128°
2026-05-04 13:49 14.16892 121.45561 10710 ft 319 kts 128°
2026-05-04 13:50 14.15422 121.47296 10937 ft 321 kts 128°
2026-05-04 13:50 14.13962 121.49020 11201 ft 321 kts 128°
2026-05-04 13:50 14.12481 121.50769 11471 ft 322 kts 128°
2026-05-04 13:50 14.10995 121.52525 11710 ft 323 kts 129°
2026-05-04 13:51 14.09514 121.54273 11932 ft 324 kts 129°
2026-05-04 13:51 14.08043 121.56008 12141 ft 326 kts 128°
2026-05-04 13:51 14.06545 121.57777 12365 ft 326 kts 128°
2026-05-04 13:51 14.05042 121.59552 12615 ft 327 kts 129°
2026-05-04 13:52 14.02038 121.63097 13047 ft 329 kts 129°
2026-05-04 13:52 14.00540 121.64865 13272 ft 330 kts 129°
2026-05-04 13:52 13.99033 121.66644 13503 ft 330 kts 129°
2026-05-04 13:53 13.97505 121.68444 13690 ft 331 kts 129°
2026-05-04 13:53 13.95980 121.70243 13853 ft 333 kts 129°
2026-05-04 13:53 13.94455 121.72042 14047 ft 334 kts 129°
2026-05-04 13:54 13.92035 121.74896 14328 ft 335 kts 129°
2026-05-04 13:54 13.90500 121.76705 14607 ft 333 kts 129°
2026-05-04 13:54 13.87550 121.80177 15683 ft 308 kts 129°
2026-05-04 13:55 13.86166 121.81812 16022 ft 306 kts 129°
2026-05-04 13:55 13.83301 121.85317 16420 ft 329 kts 128°
2026-05-04 13:55 13.81825 121.87130 16618 ft 339 kts 128°
2026-05-04 13:56 13.80268 121.89040 16796 ft 349 kts 128°
2026-05-04 13:56 13.78695 121.90970 16976 ft 358 kts 128°
2026-05-04 13:56 13.75447 121.94950 17699 ft 365 kts 129°
2026-05-04 13:57 13.73819 121.96944 18070 ft 366 kts 129°
2026-05-04 13:57 13.72200 121.98925 18719 ft 359 kts 129°
2026-05-04 13:58 13.67634 122.04515 20878 ft 326 kts 129°
2026-05-04 13:58 13.64710 122.08092 21604 ft 327 kts 129°
2026-05-04 13:58 13.63250 122.09878 21894 ft 330 kts 129°
2026-05-04 13:59 13.61768 122.11691 22181 ft 332 kts 129°
2026-05-04 13:59 13.60267 122.13525 22467 ft 335 kts 129°
2026-05-04 13:59 13.57243 122.17220 23021 ft 341 kts 129°
2026-05-04 14:00 13.55717 122.19084 23312 ft 343 kts 129°
2026-05-04 14:00 13.52630 122.22854 23890 ft 347 kts 130°
2026-05-04 14:00 13.51067 122.24761 24177 ft 349 kts 130°
2026-05-04 14:01 13.49496 122.26678 24346 ft 355 kts 129°
2026-05-04 14:01 13.47868 122.28661 24483 ft 362 kts 129°
2026-05-04 14:01 13.44567 122.32684 24744 ft 375 kts 129°
2026-05-04 14:02 13.42881 122.34740 24871 ft 382 kts 129°
2026-05-04 14:02 13.41145 122.36857 24998 ft 388 kts 129°
2026-05-04 14:02 13.39408 122.38975 25119 ft 394 kts 129°
2026-05-04 14:02 13.37608 122.41168 25239 ft 400 kts 129°
2026-05-04 14:03 13.35815 122.43353 25354 ft 406 kts 129°
2026-05-04 14:03 13.33977 122.45589 25471 ft 411 kts 129°
2026-05-04 14:03 13.32137 122.47829 25647 ft 415 kts 129°
2026-05-04 14:03 13.30267 122.50105 25884 ft 416 kts 129°
2026-05-04 14:04 13.26531 122.54649 26344 ft 420 kts 129°
2026-05-04 14:04 13.24632 122.56957 26576 ft 421 kts 129°
2026-05-04 14:04 13.22745 122.59250 26807 ft 422 kts 129°
2026-05-04 14:05 13.18935 122.63882 27235 ft 426 kts 129°
2026-05-04 14:05 13.17003 122.66229 27454 ft 427 kts 129°
2026-05-04 14:05 13.15080 122.68565 27671 ft 428 kts 130°
2026-05-04 14:06 13.13174 122.70879 27884 ft 430 kts 130°
2026-05-04 14:06 13.11236 122.73233 28111 ft 431 kts 130°
2026-05-04 14:06 13.09304 122.75577 28322 ft 432 kts 130°
2026-05-04 14:06 13.07370 122.77924 28513 ft 434 kts 130°
2026-05-04 14:07 13.05416 122.80294 28714 ft 435 kts 130°
2026-05-04 14:07 13.03439 122.82693 28933 ft 436 kts 130°
2026-05-04 14:07 13.01497 122.85047 29143 ft 438 kts 130°
2026-05-04 14:07 12.99526 122.87437 29348 ft 439 kts 130°
2026-05-04 14:08 12.97530 122.89856 29541 ft 441 kts 130°
2026-05-04 14:08 12.95544 122.92261 29739 ft 443 kts 130°
2026-05-04 14:08 12.93556 122.94669 29924 ft 445 kts 130°
2026-05-04 14:08 12.91559 122.97085 30115 ft 446 kts 130°
2026-05-04 14:09 12.87498 123.02001 30510 ft 449 kts 130°
2026-05-04 14:09 12.85466 123.04461 30706 ft 451 kts 130°
2026-05-04 14:10 12.81421 123.09353 31101 ft 453 kts 130°
2026-05-04 14:10 12.79364 123.11840 31288 ft 455 kts 130°
2026-05-04 14:10 12.77335 123.14291 31477 ft 456 kts 130°
2026-05-04 14:10 12.75257 123.16802 31705 ft 457 kts 130°
2026-05-04 14:11 12.73223 123.19259 31924 ft 457 kts 130°
2026-05-04 14:11 12.69102 123.24235 32320 ft 459 kts 130°
2026-05-04 14:11 12.67017 123.26751 32498 ft 461 kts 131°
2026-05-04 14:12 12.64930 123.29269 32686 ft 462 kts 131°
2026-05-04 14:12 12.62863 123.31763 32875 ft 463 kts 131°
2026-05-04 14:13 12.56603 123.39308 32887 ft 463 kts 131°
2026-05-04 14:13 12.52414 123.44357 32888 ft 463 kts 131°
2026-05-04 14:14 12.48268 123.49352 32887 ft 463 kts 131°
2026-05-04 14:14 12.42005 123.56900 32889 ft 462 kts 131°
2026-05-04 14:15 12.33696 123.66959 32889 ft 462 kts 130°
2026-05-04 14:16 12.27553 123.74552 32805 ft 463 kts 130°
2026-05-04 14:17 12.23478 123.79585 32095 ft 459 kts 130°
2026-05-04 14:17 12.21437 123.82102 31522 ft 456 kts 130°
2026-05-04 14:17 12.17418 123.87057 30361 ft 450 kts 129°
2026-05-04 14:18 12.15429 123.89510 29909 ft 445 kts 129°
2026-05-04 14:18 12.11638 123.94184 29011 ft 436 kts 129°
2026-05-04 14:19 12.07811 123.98904 28076 ft 428 kts 129°
2026-05-04 14:19 12.05908 124.01247 27604 ft 424 kts 129°
2026-05-04 14:19 12.04044 124.03542 27136 ft 421 kts 129°
2026-05-04 14:19 12.02175 124.05843 26658 ft 418 kts 129°
2026-05-04 14:20 12.00331 124.08114 26186 ft 415 kts 129°
2026-05-04 14:20 11.98478 124.10395 25707 ft 412 kts 129°
2026-05-04 14:20 11.96678 124.12611 25243 ft 409 kts 129°
2026-05-04 14:21 11.93070 124.17052 24308 ft 404 kts 129°
2026-05-04 14:21 11.91283 124.19253 23837 ft 401 kts 129°
2026-05-04 14:21 11.89499 124.21447 23368 ft 399 kts 129°
2026-05-04 14:21 11.87724 124.23629 22895 ft 396 kts 129°
2026-05-04 14:22 11.85956 124.25801 22433 ft 394 kts 129°
2026-05-04 14:22 11.84213 124.27935 21985 ft 391 kts 129°
2026-05-04 14:22 11.82471 124.30067 21534 ft 388 kts 128°
2026-05-04 14:22 11.80743 124.32184 21086 ft 386 kts 128°
2026-05-04 14:23 11.77347 124.36346 20183 ft 381 kts 128°
2026-05-04 14:23 11.75656 124.38420 19718 ft 379 kts 128°
2026-05-04 14:23 11.73959 124.40501 19261 ft 377 kts 128°
2026-05-04 14:24 11.72302 124.42534 18806 ft 375 kts 128°
2026-05-04 14:24 11.70642 124.44570 18362 ft 372 kts 128°
2026-05-04 14:24 11.68992 124.46595 17915 ft 370 kts 128°
2026-05-04 14:24 11.67354 124.48604 17465 ft 367 kts 128°
2026-05-04 14:25 11.65726 124.50599 17032 ft 364 kts 128°
2026-05-04 14:25 11.62501 124.54549 16149 ft 359 kts 128°
2026-05-04 14:25 11.60900 124.56512 15701 ft 357 kts 128°
2026-05-04 14:26 11.59316 124.58453 15248 ft 355 kts 128°
2026-05-04 14:26 11.57750 124.60374 14807 ft 352 kts 128°
2026-05-04 14:26 11.56185 124.62291 14371 ft 350 kts 128°
2026-05-04 14:26 11.54640 124.64183 13935 ft 348 kts 128°
2026-05-04 14:27 11.53094 124.66075 13495 ft 345 kts 128°
2026-05-04 14:27 11.51568 124.67940 13073 ft 343 kts 129°
2026-05-04 14:27 11.49920 124.69696 12644 ft 342 kts 135°
2026-05-04 14:27 11.48063 124.71237 12196 ft 341 kts 142°
2026-05-04 14:28 11.46126 124.72611 11763 ft 339 kts 143°
2026-05-04 14:28 11.44169 124.73963 11340 ft 338 kts 144°
2026-05-04 14:28 11.42240 124.75294 10915 ft 336 kts 144°
2026-05-04 14:28 11.40303 124.76634 10474 ft 335 kts 144°
2026-05-04 14:29 11.36556 124.79228 10126 ft 313 kts 144°
2026-05-04 14:29 11.33066 124.81648 9703 ft 298 kts 144°
2026-05-04 14:30 11.31342 124.82845 9319 ft 297 kts 144°
2026-05-04 14:30 11.29641 124.84023 8926 ft 296 kts 144°
2026-05-04 14:30 11.26167 124.86214 8324 ft 288 kts 156°
2026-05-04 14:31 11.24255 124.86811 8033 ft 286 kts 165°
2026-05-04 14:31 11.20364 124.87659 7344 ft 283 kts 166°
2026-05-04 14:32 11.16512 124.88493 6676 ft 279 kts 165°
2026-05-04 14:32 11.14636 124.88907 6354 ft 277 kts 166°
2026-05-04 14:32 11.12734 124.89330 6027 ft 276 kts 165°
2026-05-04 14:32 11.10862 124.89747 5706 ft 274 kts 165°
2026-05-04 14:33 11.08997 124.90163 5383 ft 273 kts 165°
2026-05-04 14:33 11.07129 124.90579 5058 ft 271 kts 165°
2026-05-04 14:33 11.05330 124.91070 4703 ft 269 kts 153°
2026-05-04 14:33 11.03978 124.92284 4444 ft 254 kts 116°
2026-05-04 14:34 11.03512 124.93942 4271 ft 241 kts 91°
2026-05-04 14:34 11.03457 124.95617 4108 ft 232 kts 90°
2026-05-04 14:34 11.03395 124.97237 3945 ft 223 kts 91°
2026-05-04 14:34 11.03318 124.98773 3857 ft 209 kts 91°
2026-05-04 14:35 11.03365 125.00195 3636 ft 199 kts 73°
2026-05-04 14:35 11.04171 125.01283 3315 ft 194 kts 35°
2026-05-04 14:35 11.05431 125.01683 3091 ft 187 kts
2026-05-04 14:35 11.06689 125.01746 2925 ft 176 kts
2026-05-04 14:36 11.07889 125.01806 2759 ft 166 kts
2026-05-04 14:36 11.09042 125.01874 2484 ft 167 kts
2026-05-04 14:36 11.10193 125.01946 2245 ft 163 kts
2026-05-04 14:36 11.11326 125.02020 2058 ft 159 kts
2026-05-04 14:37 11.12406 125.02090 1807 ft 151 kts
2026-05-04 14:37 11.13457 125.02159 1612 ft 151 kts
2026-05-04 14:37 11.14506 125.02230 1413 ft 151 kts
2026-05-04 14:37 11.15550 125.02300 1215 ft 150 kts
2026-05-04 14:38 11.16594 125.02370 1018 ft 149 kts
2026-05-04 14:38 11.17632 125.02440 818 ft 149 kts
2026-05-04 14:38 11.18670 125.02504 613 ft 149 kts
2026-05-04 14:38 11.19717 125.02561 417 ft 149 kts
2026-05-04 14:39 11.20758 125.02636 244 ft 150 kts
2026-05-04 14:39 11.21802 125.02710 51 ft 149 kts
2026-05-04 14:39 11.22707 125.02773 20 ft 90 kts
2026-05-04 14:40 11.23413 125.02819 19 ft 31 kts
2026-05-04 14:40 11.23568 125.02829 19 ft 15 kts
2026-05-04 14:40 11.23653 125.02819 19 ft 11 kts 337°
2026-05-04 14:40 11.23706 125.02813 18 ft 5 kts 39°
2026-05-04 14:41 11.23700 125.02835 18 ft 4 kts 162°
2026-05-04 14:41 11.23652 125.02834 19 ft 9 kts 184°
2026-05-04 14:41 11.23445 125.02821 19 ft 19 kts 183°
2026-05-04 14:42 11.23153 125.02801 18 ft 21 kts 184°
2026-05-04 14:42 11.23008 125.02791 19 ft 20 kts 184°
2026-05-04 14:42 11.22876 125.02782 19 ft 14 kts 184°
2026-05-04 14:43 11.22789 125.02773 20 ft 9 kts 205°
2026-05-04 14:43 11.22757 125.02724 21 ft 6 kts 244°
2026-05-04 14:43 11.22731 125.02698 22 ft 5 kts 196°
2026-05-04 14:43 11.22707 125.02691 22 ft 1 kts 246°
2026-05-04 14:44 11.22717 125.02676 22 ft 3 kts 311°
2026-05-04 14:44 11.22730 125.02662 22 ft 1 kts 316°
2026-05-04 14:44 11.22736 125.02657 22 ft 0 kts 317°